sat.trackr.live / text

‹ back to catalog

STARLINK-5172

NORAD 54064 · 2022-136P

PAYLOAD ACTIVE UNKNOWN

§ Identity

Operator
Country
US
Launch date
2022-10-20
Launch site
AFETR
Launch vehicle
Mass (kg)
RCS (m²)

Purposes: comms

External: N2YO · Heavens-Above · Gunter

§ Orbital elements

Epoch: 2026-05-24T17:48:08.383680Z

Period
95.44 min
Inclination
53.2147°
Eccentricity
0.0001268
Mean motion
15.08836672 rev/d
Perigee alt
538.9 km
Apogee alt
540.6 km
Semi-major
6,917.9 km
B*
-3.2617e-5
RAAN
317.8901°
Arg perigee
89.9192°
Mean anomaly
270.1945°
Rev number
19,895

§ Raw data

STARLINK-51721 54064U 22136P   26144.74176370 -.00000807  00000+0 -32617-4 0  99942 54064  53.2147 317.8901 0001268  89.9192 270.1945 15.08836672198953

JSON: /api/v1/satellites/54064 · /tle

For live sub-satellite position, see the globe view (requires WebGL).

§ Visibility from observer

Set your observer location to see the next 7 days of passes ≥ 10°. The values pass through the URL so the page stays shareable.

No JS? Fill the form by hand. The geolocation button needs JavaScript.